SM7SJR-13 Weather Reports


Display with metric or nautical units.
time (UTC)temp
F
wind
direction
speed
MPH
gust
MPH
rain 1hr
in
rain 24hr
in
rain mn
in
humidity
%
barometer
mb
20260906150004 72 239 8.0 17.0 0.00 0.11 0.01 55 1016.2
20260906144504 72 265 6.0 15.0 0.00 0.11 0.01 54 1016.2
20260906143004 73 263 8.0 14.0 0.00 0.11 0.01 55 1016.1
20260906141503 73 274 8.0 13.0 0.00 0.11 0.01 55 1016.2
20260906140004 73 259 8.0 13.0 0.00 0.11 0.01 54 1016.2
20260906134503 73 262 8.0 15.0 0.00 0.11 0.01 55 1016.1
20260906131503 72 266 9.0 17.0 0.00 0.11 0.01 54 1015.8
20260906130004 73 298 7.0 15.0 0.00 0.11 0.01 53 1015.8
20260906124503 73 252 8.0 17.0 0.00 0.11 0.01 57 1015.8
20260906123004 73 255 9.0 16.0 0.00 0.11 0.01 57 1015.8
20260906120004 71 263 9.0 16.0 0.00 0.11 0.01 59 1015.7
20260906113004 71 253 10.0 15.0 0.00 0.11 0.01 61 1015.5
20260906111504 71 271 7.0 12.0 0.00 0.11 0.01 63 1015.5
20260906110004 70 267 6.0 15.0 0.00 0.11 0.01 66 1015.4
20260906103003 70 274 8.0 16.0 0.00 0.11 0.01 65 1015.3
20260906101504 69 271 8.0 18.0 0.00 0.11 0.01 67 1015.0
20260906100003 69 299 12.0 20.0 0.00 0.11 0.01 65 1014.9
20260906094504 68 269 6.0 14.0 0.00 0.11 0.01 70 1014.9
20260906093003 67 263 6.0 15.0 0.00 0.11 0.01 72 1014.9
20260906091504 66 263 10.0 14.0 0.00 0.11 0.01 74 1014.9
20260906090004 65 250 6.0 16.0 0.00 0.11 0.01 76 1014.8
20260906084504 64 261 6.0 16.0 0.00 0.11 0.01 79 1014.5
20260906083003 64 245 6.0 15.0 0.00 0.11 0.01 82 1014.5
20260906081503 62 260 7.0 13.0 0.00 0.11 0.01 84 1014.5
20260906080003 61 268 5.0 12.0 0.00 0.11 0.01 86 1014.1
20260906074504 60 267 7.0 12.0 0.00 0.11 0.01 89 1014.1
20260906071504 58 269 6.0 15.0 0.00 0.11 0.01 93 1013.8
20260906064504 56 266 6.0 14.0 0.00 0.11 0.01 96 1013.4
20260906060004 54 269 7.0 13.0 0.00 0.11 0.01 97 1013.0
20260906054503 54 270 5.0 12.0 0.00 0.11 0.01 97 1012.8
20260906051503 52 266 5.0 12.0 0.00 0.11 0.01 98 1012.0
20260906050003 51 275 6.0 9.0 0.00 0.11 0.01 97 1012.0
20260906043005 51 280 7.0 10.0 0.00 0.11 0.01 97 1011.5
20260906041504 51 267 6.0 12.0 0.00 0.11 0.01 97 1011.3
20260906034503 51 270 5.0 10.0 0.01 0.11 0.01 97 1010.8
20260906033003 52 268 5.0 10.0 0.01 0.11 0.01 97 1010.5
20260906031503 52 278 6.0 12.0 0.01 0.11 0.01 97 1010.2
20260906024503 52 278 8.0 13.0 0.00 0.10 0.00 97 1010.0
20260906023004 52 280 7.0 15.0 0.00 0.10 0.00 97 1009.7
20260906021504 52 276 9.0 14.0 0.00 0.10 0.00 97 1009.6
20260906020004 52 284 6.0 13.0 0.00 0.10 0.00 97 1009.5
20260906014505 51 278 7.0 17.0 0.00 0.10 0.00 97 1009.1
20260906013004 51 273 9.0 15.0 0.00 0.10 0.00 97 1008.9
20260906011503 51 283 7.0 13.0 0.00 0.10 0.00 97 1008.5
20260906010004 51 271 6.0 12.0 0.00 0.10 0.00 97 1008.5
20260906004503 51 276 7.0 13.0 0.00 0.10 0.00 97 1008.2
20260906001504 51 284 7.0 13.0 0.00 0.11 0.00 97 1007.5
20260906000003 51 272 6.0 13.0 0.00 0.11 0.00 97 1007.4
20260905233004 51 276 7.0 12.0 0.00 0.11 0.00 97 1006.9
20260905231504 52 276 5.0 12.0 0.00 0.11 0.00 97 1006.7
20260905230004 52 278 6.0 12.0 0.00 0.11 0.00 97 1006.2
20260905224504 52 286 6.0 12.0 0.00 0.11 0.00 97 1006.1
20260905223004 52 280 6.0 9.0 0.00 0.11 0.00 96 1005.7
20260905221504 52 279 6.0 9.0 0.00 0.11 0.00 97 1005.5
20260905220004 52 275 6.0 10.0 0.00 0.12 0.00 96 1005.3
20260905214504 52 265 6.0 10.0 0.00 0.12 0.10 96 1005.0
20260905213004 52 267 5.0 10.0 0.00 0.12 0.10 96 1004.5
20260905211504 52 265 5.0 9.0 0.00 0.12 0.10 96 1004.5
20260905204504 52 260 4.0 7.0 0.00 0.12 0.10 96 1004.5
20260905203004 52 244 5.0 7.0 0.00 0.12 0.10 96 1004.3
20260905201503 53 242 5.0 6.0 0.00 0.13 0.10 96 1004.2
20260905200003 54 245 5.0 6.0 0.00 0.14 0.10 96 1004.1
20260905193004 54 236 6.0 8.0 0.10 0.15 0.10 96 1004.1
20260905191504 54 239 7.0 8.0 0.10 0.15 0.10 96 1004.4
20260905153004 58 289 3.0 10.0 0.10 0.15 0.10 86 1002.7
20260905151503 60 304 7.0 22.0 0.05 0.10 0.05 79 1001.9